Theta_e
309 304 304 306 309 314 315 316 316 316 317 317 317 316 316 316 318 317 316 318 318 318 320 325 327 328 329 330 330 329 328 328 327 323 322 322 322 322 322 323 323 324 329 329
309 307 306 307 309 311 313 314 316 317 317 318 318 318 317 318 318 317 316 319 319 319 322 325 328 329 330 329 330 330 329 327 326 324 320 322 321 323 321 321 323 323 325 328
309 312 311 310 310 310 312 313 314 315 317 317 318 318 318 319 318 318 318 321 321 322 322 325 329 329 330 330 330 330 329 326 326 323 323 323 321 320 320 320 321 323 324 325
314 315 317 317 317 315 314 313 314 315 320 320 319 324 320 319 319 319 317 318 320 321 321 323 329 330 330 330 330 330 328 327 325 321 323 321 322 320 320 320 322 322 324 324
315 317 316 317 318 315 315 313 314 316 320 320 321 323 321 319 320 320 320 320 321 320 320 324 329 329 329 330 330 329 328 327 324 319 322 322 321 320 320 320 320 321 321 321
312 313 313 314 314 316 315 315 318 318 321 322 320 322 322 321 320 320 320 320 321 321 319 322 326 330 330 330 330 329 328 326 322 319 324 322 323 321 321 321 321 322 321 322
311 311 312 314 315 314 317 319 323 323 324 320 320 323 321 320 320 320 320 320 321 320 320 327 329 330 330 330 330 329 328 325 321 318 321 323 322 321 321 321 321 321 322 322
309 310 311 312 313 315 315 319 325 323 324 322 320 321 320 319 319 320 320 320 321 319 323 328 328 329 330 330 330 330 328 325 321 317 320 323 323 321 321 320 321 321 320 321
309 313 313 313 314 313 316 319 318 321 322 323 321 322 321 321 321 321 320 320 318 318 327 329 329 330 330 330 330 330 328 325 322 316 319 321 321 320 320 320 320 320 320 319
308 310 310 314 314 314 315 317 322 321 323 326 324 324 328 326 324 319 318 318 319 324 329 330 330 330 330 330 330 330 328 326 323 317 319 321 321 320 320 321 321 320 320 319
309 309 311 311 314 317 317 319 317 320 322 325 327 330 325 325 324 322 321 318 321 327 330 330 330 330 330 331 330 329 328 327 325 319 317 320 322 320 320 321 320 320 320 319
307 311 310 310 310 315 316 318 318 324 322 323 326 325 324 323 322 321 321 319 318 318 324 330 330 331 331 330 330 329 328 327 326 323 317 317 321 321 320 320 321 321 320 320
307 311 314 314 314 315 316 316 316 319 319 323 324 325 322 322 321 321 321 319 319 319 323 328 329 329 329 330 330 329 329 328 327 325 319 318 319 322 321 320 321 321 321 320
308 309 313 316 315 315 316 314 316 318 322 319 323 322 323 321 320 322 321 320 319 320 321 322 327 328 328 328 328 327 327 328 328 327 324 321 320 319 319 321 321 321 321 321
308 310 312 312 311 315 316 316 316 318 319 323 322 322 321 321 320 322 321 319 320 320 322 323 323 322 323 326 328 328 328 328 327 327 327 326 324 321 322 321 320 321 320 321
307 308 309 310 311 311 311 316 316 317 318 320 320 321 319 319 321 319 320 319 319 320 322 322 322 322 322 322 322 325 327 328 327 327 326 326 326 324 324 324 323 322 321 321
308 309 309 311 310 308 312 315 317 315 317 316 318 318 319 320 320 319 317 317 318 320 321 320 319 317 317 318 320 322 323 323 326 328 326 325 325 325 325 325 325 325 324 323
307 307 308 309 309 308 311 311 314 317 318 316 318 319 318 316 316 316 316 318 318 320 319 317 316 315 315 317 318 320 322 322 325 326 326 325 324 324 324 325 325 325 325 325
306 306 305 308 310 310 308 310 313 315 318 317 317 317 316 316 315 313 312 312 313 314 314 316 315 313 313 314 315 317 319 321 321 321 323 323 324 326 324 324 324 325 326 326
306 305 306 306 310 309 310 312 312 315 318 316 315 315 315 315 315 313 308 309 309 310 310 312 313 314 313 313 314 314 315 315 317 318 318 319 320 321 323 326 325 324 324 325
307 305 307 307 308 310 311 313 314 315 316 312 312 312 312 312 312 307 307 306 306 307 307 308 309 311 312 312 312 312 312 313 311 313 315 316 318 318 320 322 324 325 325 325
309 309 308 306 310 310 311 314 315 312 310 310 309 309 308 308 306 304 302 304 303 303 304 305 306 307 307 309 310 310 309 308 309 311 311 311 312 314 316 317 320 322 323 323
311 309 308 307 307 310 309 308 308 308 308 307 306 306 306 305 303 303 302 302 301 302 301 301 302 302 302 303 305 307 307 308 307 308 308 309 309 310 311 314 316 318 318 319
306 307 310 310 310 307 308 306 306 305 305 304 304 303 303 302 301 300 300 300 300 300 299 298 298 299 300 301 302 303 305 306 307 305 306 306 306 306 307 308 308 309 310 310
307 308 306 311 308 305 304 304 304 303 302 302 303 301 300 300 298 298 297 297 297 297 296 297 297 298 298 300 301 302 303 304 305 305 303 303 303 303 303 304 304 303 302 302
301 302 306 304 300 303 300 300 300 301 300 298 298 298 297 298 296 295 295 294 294 296 296 296 296 297 297 298 299 300 301 302 302 301 300 299 298 299 297 297 297 295 294 293
Wind_Speed
2 3 7 8 6 4 4 7 9 6 5 7 13 13 15 18 24 22 31 33 37 39 39 36 33 34 31 27 25 22 20 20 20 19 19 20 21 19 21 25 32 33 41 47
3 7 6 7 6 7 6 3 7 5 5 12 16 25 19 23 20 26 27 29 31 40 34 36 39 38 35 31 27 24 21 20 19 19 17 18 15 16 15 17 30 34 35 38
6 3 5 5 5 8 6 5 3 5 14 11 5 22 21 24 17 26 25 32 37 38 36 36 45 43 39 34 31 27 22 20 20 17 19 17 16 12 12 11 18 27 33 33
6 2 3 1 3 2 12 6 5 7 6 5 2 11 17 16 20 19 17 20 26 32 35 39 48 47 42 37 32 27 22 21 19 17 21 18 18 15 15 11 14 23 31 38
4 4 2 1 3 6 6 4 7 1 8 9 14 7 13 12 18 19 15 22 24 27 34 41 53 49 44 39 34 28 24 21 20 19 21 20 18 14 18 17 17 22 28 34
5 4 6 8 3 1 2 4 5 6 8 10 12 11 11 13 16 17 16 21 28 26 35 44 52 51 47 40 34 29 26 24 22 21 24 21 21 19 23 24 20 24 28 30
2 5 4 5 4 3 5 5 3 5 6 11 5 13 17 12 16 15 17 22 33 26 31 41 46 51 47 42 36 31 28 27 23 22 25 24 23 22 23 27 26 29 33 35
4 3 6 6 7 4 6 5 3 6 4 3 10 7 5 21 22 32 34 29 39 26 35 46 51 54 50 44 38 34 30 28 25 23 24 24 24 25 27 28 28 31 31 34
5 4 1 5 3 6 4 4 5 5 2 1 4 5 5 7 12 13 20 22 16 26 40 44 47 51 48 42 40 34 30 28 25 24 23 25 23 22 27 27 26 29 36 38
2 2 4 4 4 5 8 2 2 3 3 3 4 3 3 10 9 13 17 10 7 24 34 40 45 47 43 43 37 33 28 26 24 25 25 26 28 26 25 25 29 31 34 41
2 3 4 2 5 5 3 3 4 4 3 1 3 2 6 11 11 14 16 26 12 12 26 35 39 43 43 39 37 33 30 27 25 25 27 28 30 30 29 29 31 30 32 38
2 1 4 9 11 6 8 4 4 3 3 3 2 3 6 12 15 16 18 31 17 23 11 28 34 38 38 36 35 31 28 28 26 25 28 29 29 32 32 32 31 31 33 34
2 3 4 6 5 6 3 8 11 8 2 4 4 2 7 14 17 23 19 19 17 30 30 16 20 26 30 32 32 30 29 28 25 25 28 28 30 33 36 35 32 34 35 36
1 3 3 4 7 4 6 3 12 10 3 3 6 6 4 4 13 14 24 22 16 29 36 39 18 8 6 13 21 26 28 30 27 25 27 29 31 32 33 36 37 34 35 36
3 1 2 7 14 6 6 6 7 4 12 4 2 4 5 3 4 8 22 17 22 24 33 33 31 28 21 9 3 13 23 30 32 30 28 29 29 31 31 32 36 39 38 38
4 2 3 4 8 10 14 14 11 5 11 11 16 14 7 4 7 2 15 16 17 19 30 32 27 24 21 19 15 10 5 19 27 36 36 33 31 33 34 34 34 35 37 40
2 3 4 3 6 12 8 7 15 7 12 7 2 7 1 9 9 6 4 11 15 20 24 29 27 23 20 17 12 10 5 4 9 22 35 32 32 36 38 39 38 39 39 40
3 2 2 3 3 5 7 13 9 5 4 15 3 12 16 17 21 28 25 19 25 23 25 25 21 19 19 17 15 10 7 8 8 7 20 28 31 31 36 37 41 44 43 44
9 4 1 2 3 10 14 2 3 10 5 8 10 5 18 18 22 26 24 26 26 23 21 21 19 18 17 16 17 15 13 8 7 6 1 5 9 26 33 35 41 43 41 44
9 5 4 1 3 4 5 6 21 3 3 4 9 5 5 8 7 6 16 17 20 20 18 18 16 13 14 16 14 14 16 16 17 16 14 10 8 9 13 27 37 40 45 49
3 1 12 7 3 6 5 16 18 8 3 10 16 15 14 7 9 16 12 15 16 17 18 16 14 15 14 14 14 13 15 17 19 17 14 14 14 12 12 14 22 34 39 43
6 5 4 3 4 9 18 7 4 5 18 20 19 18 21 19 16 15 14 15 17 18 17 16 15 16 15 13 12 14 15 16 14 14 14 16 17 15 14 13 16 18 24 31
4 5 3 6 4 7 17 17 22 17 21 19 21 17 17 15 13 13 15 15 17 17 16 16 16 15 14 15 14 13 14 14 15 14 12 11 12 14 13 10 8 11 13 14
3 4 1 3 8 11 16 19 22 22 18 16 16 15 15 16 11 12 12 13 16 17 18 17 15 16 16 16 14 13 12 11 11 15 13 12 13 14 13 11 11 10 9 9
6 3 4 5 10 13 16 14 11 14 11 12 8 9 13 11 12 10 10 11 13 15 17 17 17 16 15 14 14 14 13 12 11 11 12 11 12 13 15 16 16 15 13 11
8 5 3 2 9 9 6 10 10 8 7 8 5 8 11 9 9 7 9 10 11 13 14 14 14 14 14 14 13 12 11 10 9 8 6 6 7 9 12 16 18 18 17 16
Wind_Direction
206 159 215 198 217 204 285 276 278 278 301 329 311 296 291 296 299 268 249 244 244 230 221 208 203 204 205 208 212 213 216 215 216 216 221 227 236 224 216 219 214 213 209 209
321 248 233 216 235 255 247 270 281 288 318 350 327 296 301 294 283 277 234 226 218 211 216 203 195 200 204 212 211 212 217 224 226 230 227 217 222 219 221 217 210 211 215 216
180 234 151 206 252 251 217 220 241 293 330 316 330 292 290 281 294 280 238 215 215 219 215 200 192 198 202 210 214 216 222 223 224 229 204 206 214 222 221 217 192 206 214 220
224 280 148 5 255 269 267 179 242 263 351 257 70 280 283 280 286 285 260 221 230 234 227 210 194 195 204 211 211 215 217 216 222 232 202 207 211 206 215 186 204 212 213 217
231 162 105 148 213 265 271 194 230 276 262 272 246 254 271 270 275 276 271 270 268 252 229 205 198 202 205 208 209 210 210 215 222 224 204 203 205 206 205 191 197 202 191 183
216 169 163 192 149 189 314 241 308 248 246 248 221 212 250 259 250 270 274 267 270 272 234 213 204 197 201 203 206 207 210 214 219 216 200 205 198 197 200 193 193 196 198 189
262 229 222 162 183 136 164 166 179 216 206 236 190 206 242 260 245 261 271 266 265 264 218 186 186 195 200 200 203 206 210 212 216 213 203 204 201 200 202 200 198 192 192 189
171 319 172 190 198 175 182 176 228 217 220 209 204 241 244 227 234 258 268 263 275 250 204 187 194 197 200 199 203 206 208 211 216 215 205 205 205 205 202 206 212 207 204 200
179 256 122 149 137 175 167 206 256 306 297 105 255 285 275 35 4 314 264 261 257 189 182 185 191 197 197 201 206 208 209 210 216 217 207 204 208 203 206 207 214 221 214 203
229 281 249 166 138 205 229 18 191 203 232 224 241 241 54 1 348 11 19 329 182 170 178 184 192 196 200 206 206 209 211 215 220 217 212 210 210 209 210 212 213 219 220 217
355 150 291 80 204 163 199 222 223 270 253 247 310 126 37 330 337 354 356 350 83 149 178 185 193 196 202 204 207 208 208 212 220 223 218 213 214 217 214 216 215 217 222 224
137 210 247 239 250 173 182 223 217 259 197 186 80 276 18 343 338 358 356 2 19 67 115 197 195 196 202 207 209 209 211 217 222 226 224 219 218 219 222 222 219 219 223 226
217 70 322 325 41 100 257 257 227 244 292 244 176 239 47 339 341 346 355 7 19 56 69 136 174 191 206 212 214 214 217 222 224 223 225 224 222 222 224 227 225 223 224 228
18 133 181 318 309 187 249 237 290 230 226 208 243 295 53 37 320 329 328 334 47 64 68 74 100 124 179 227 231 229 229 230 230 227 228 230 228 229 229 229 230 230 230 230
105 90 277 261 303 216 244 277 287 262 244 246 27 226 322 211 237 307 313 341 72 68 74 74 74 76 82 105 194 270 257 246 242 238 236 239 238 236 237 237 235 236 236 237
10 267 289 267 298 292 285 237 241 254 269 238 261 268 272 295 152 263 276 299 84 80 90 84 72 60 57 61 63 51 324 255 248 247 247 246 245 241 240 240 242 242 243 242
39 354 348 252 350 317 288 225 209 218 186 164 219 223 60 218 149 186 312 360 59 78 83 71 65 62 58 52 50 63 83 350 269 256 249 255 255 254 250 247 243 245 246 245
186 175 228 249 316 264 257 319 235 135 294 207 167 139 119 95 73 57 43 63 73 88 84 80 72 60 54 54 53 49 45 50 62 205 238 243 249 261 264 257 254 250 247 247
201 169 300 213 220 307 299 10 201 176 11 54 97 158 123 110 71 47 50 61 74 79 72 67 59 55 49 41 37 39 43 31 21 56 23 267 260 253 251 259 264 262 257 255
209 177 166 134 233 252 262 358 329 116 103 70 112 85 97 127 87 76 71 62 64 60 50 46 41 34 30 37 31 27 35 33 36 26 14 353 326 312 270 255 254 258 262 264
110 187 212 219 238 283 320 321 320 201 154 80 85 84 80 82 99 108 89 57 48 41 32 28 28 34 34 23 22 27 27 26 20 14 15 9 3 345 332 312 265 255 246 253
181 179 195 180 220 248 347 327 24 75 86 89 81 86 84 89 90 84 72 51 38 35 32 32 28 29 27 23 20 18 19 12 11 17 16 19 16 7 357 343 323 291 259 246
223 186 207 180 186 72 55 73 65 69 82 73 86 87 93 84 69 58 49 41 34 27 27 29 32 32 27 23 19 18 15 6 357 356 3 15 14 8 1 356 359 343 326 290
233 329 326 154 121 91 67 57 61 62 58 80 70 79 86 87 72 59 42 29 25 19 18 21 25 27 25 27 24 21 13 4 355 350 350 359 13 27 26 28 36 41 37 11
342 3 326 99 90 79 53 55 46 59 52 66 78 62 72 71 60 46 36 23 17 16 15 13 17 18 20 18 16 12 6 359 359 354 353 1 11 26 35 35 31 33 35 35
357 349 350 48 318 95 73 48 47 51 40 45 53 56 55 51 46 25 23 16 13 18 13 8 12 10 9 5 1 355 351 350 346 344 356 21 35 39 50 59 59 59 67 71